Location: Wellington
(41.3000°S, 174.7830°E)
Time: 16:44:40
(UTC+12:00)

Cosmos 968 Rocket - Pass Details

Date: 24 January 2019
Orbit: 740 x 771 km, 74.0° (Epoch: 17 April)

Event Time Altitude Azimuth Distance (km) Brightness Sun altitude
Exits shadow 23:09:20 46° 30° (NNE) 1,018 3.7 -20.9°
Maximum altitude 23:10:28 57° 75° (ENE) 902 3.5 -21.1°
Drops below altitude 10° 23:15:38 10° 152° (SSE) 2,328 6.3 -21.6°
Sets 23:18:05 0° 156° (SSE) 3,267 7.2 -21.9°
